Location: Chassagnes
(44.4047°N, 4.1657°E)
Time: 12:01:24
(UTC+00:00)

Cosmos 2219 - Pass Details

Date: 27 October 2020
Orbit: 832 x 862 km, 71.1° (Epoch: 23 November)

Event Time Altitude Azimuth Distance (km) Brightness Sun altitude
Rises 18:31:30 0° 329° (NNW) 3,446 6.8 -20.6°
Reaches altitude 10° 18:34:02 10° 325° (NW) 2,507 6.1 -21.0°
Maximum altitude 18:39:32 48° 252° (WSW) 1,109 4.2 -22.0°
Drops below altitude 10° 18:45:01 10° 179° (S) 2,490 5.6 -23.0°
Sets 18:47:32 0° 174° (S) 3,420 6.3 -23.5°
